Terminal Aerodrome Forecast
Issued by NWS Duluth, MN

Home | Current Version | Previous Version | Text Only | Print | Product List | Glossary On
Versions: 1 2 3 4 5 6 7 8 9 10 11 12 13 14 15 16 17 18 19 20 21 22 23 24 25 26 27 28 29 30
692
FTUS43 KDLH 061733
TAFINL
TAF
KINL 061733Z 0618/0718 15007KT P6SM SCT080 OVC100
     FM062000 15008KT 4SM -SN OVC025
     FM062300 15008KT 2SM -SN OVC010
      TEMPO 0623/0702 3/4SM -SN OVC007
     FM070500 19007KT P6SM -SN OVC010
     FM070900 22005KT 2SM -SN OVC007=

USA.gov is the U.S. government's official web portal to all federal, state and local government web resources and services.